Kosmos-2433

operational
NORAD ID: 32277 Int'l Des: 2007-052 Owner: KVR/IACG Country: RU
MEOCIRCULAR

About Kosmos-2433

Description loading...

Live Position

Loading 3D Globe...

Upcoming Passes

Altitude History

Altitude vs Time

uPlot chart will show altitude changes over time

Two-Line Element Set

1 32277U 07052C 25257.12392308 -.00000060 00000-0 00000-0 0 9991
2 32277 65.7416 325.1454 0016077 178.4345 239.8516 2.13208976139330
Epoch: Sep 14, 2025 • Age: 42 hours

Current Status

Altitude 19164.0 km
Velocity 3.95 km/s
Sub-Earth Point -46.05°S, 5.97°W
Launch Date Oct 26, 2007
Age 17.8 years
Type other

Technical Details

Classification Payload
Mass 1450.00 kg
Dry Mass 1200.00 kg
Total Mass 1450.00 kg
Length 4.00 m
Diameter 1.50 m
Span 7.80 m
Shape Cyl + Ant + 2 Pan
Manufacturer RESH
Bus Type Uragan
Phase Status In Orbit
Owner/State KVR/IACG/RU

Large Constellations

Loading constellations...